Pasco, WA

3:40 PM PDT on August 31, 2016 (GMT -0700)
Tri-Cities

Weather History for KPSC - October, 2011

Change the Weather History Date:

Monday, October 31, 2011

  Actual Average Record
Temperature  
Mean Temperature 50 °F 47 °F  
Max Temperature 62 °F 58 °F 71 °F (2015)
Min Temperature 38 °F 35 °F 9 °F (2002)
Degree Days  
Heating Degree Days 15 18  
Month to date heating degree days 339 406  
Since 1 July heating degree days 393 518  
Cooling Degree Days 0 0  
Month to date cooling degree days 3 1  
Year to date cooling degree days 632 710  
Moisture  
Dew Point 31 °F    
Average Humidity 51    
Maximum Humidity 74    
Minimum Humidity 27    
Precipitation  
Precipitation 0.00 in 0.02 in 0.70 in (1973)
Month to date precipitation 0.59 0.65  
Year to date precipitation 5.96 6.53  
Snow  
Snow 0.00 in - - ()
Snow Depth 0.00 in    
Sea Level Pressure  
Sea Level Pressure 30.23 in    
Wind  
Wind Speed 7 mph (WSW)    
Max Wind Speed 16 mph    
Max Gust Speed 20 mph    
Visibility 10 miles    
Events      
T = Trace of Precipitation, MM = Missing Value Source: NWS Daily Summary

Daily Weather History Graph

Daily Weather History Graph

Search for Another Location

Airport or City:

Trip Planner

Search our weather history database for the weather conditions in past years. The results will help you decide how hot, cold, wet, or windy it might be!

Date:

Astronomy

Oct. 31, 2011 Rise Set
Actual Time 7:35 AM PDT 5:43 PM PDT
Civil Twilight 7:04 AM PDT 6:14 PM PDT
Nautical Twilight 6:29 AM PDT 6:50 PM PDT
Astronomical Twilight 5:54 AM PDT 7:25 PM PDT
Moon 12:53 PM PDT 10:18 PM PDT
Length of Visible Light 11h 10m
Length of Day
10h 07m
Waxing Crescent, 31% of the Moon is Illuminated
Oct 31
Waxing Crescent
Nov 2
First Quarter
Nov 10
Full
Nov 18
Last Quarter
Nov 24
New

Hourly Weather History & Observations

Time (PDT) Temp. Windchill Dew Point Humidity Pressure Visibility Wind Dir Wind Speed Gust Speed Precip Events Conditions
12:53 AM 50.0 °F - 43.0 °F 77% 30.05 in 10.0 mi Calm Calm - N/A   Mostly Cloudy
1:53 AM 53.1 °F - 43.0 °F 69% 30.07 in 10.0 mi West 9.2 mph - N/A   Clear
2:53 AM 51.1 °F - 42.1 °F 71% 30.10 in 10.0 mi WSW 9.2 mph - N/A   Clear
3:53 AM 48.0 °F - 37.9 °F 68% 30.14 in 10.0 mi WNW 12.7 mph - N/A   Clear
4:53 AM 48.0 °F - 32.0 °F 54% 30.17 in 10.0 mi West 8.1 mph - N/A   Partly Cloudy
5:53 AM 46.9 °F - 33.1 °F 59% 30.20 in 10.0 mi SSW 4.6 mph - N/A   Partly Cloudy
6:53 AM 46.0 °F - 28.9 °F 51% 30.22 in 10.0 mi Calm Calm - N/A   Clear
7:53 AM 37.9 °F 32.1 °F 28.0 °F 68% 30.23 in 10.0 mi SW 8.1 mph - N/A   Clear
8:53 AM 48.0 °F - 30.9 °F 52% 30.26 in 10.0 mi SSW 11.5 mph - N/A   Clear
9:53 AM 52.0 °F - 33.1 °F 49% 30.28 in 10.0 mi SW 9.2 mph - N/A   Clear
10:53 AM 55.0 °F - 30.9 °F 40% 30.28 in 10.0 mi SW 11.5 mph - N/A   Clear
11:53 AM 57.9 °F - 30.9 °F 36% 30.28 in 10.0 mi SW 15.0 mph - N/A   Clear
12:53 PM 60.1 °F - 27.0 °F 28% 30.26 in 10.0 mi WSW 13.8 mph - N/A   Clear
1:53 PM 60.1 °F - 26.1 °F 27% 30.25 in 10.0 mi West 8.1 mph - N/A   Clear
3:53 PM 59.0 °F - 26.1 °F 28% 30.24 in 10.0 mi West 5.8 mph - N/A   Clear
5:53 PM 54.0 °F - 28.0 °F 37% 30.25 in 10.0 mi SW 9.2 mph - N/A   Partly Cloudy
6:53 PM 53.1 °F - 27.0 °F 37% 30.27 in 10.0 mi WNW 12.7 mph - N/A   Clear
7:53 PM 50.0 °F - 28.0 °F 43% 30.29 in 10.0 mi West 11.5 mph - N/A   Clear
9:53 PM 43.0 °F 38.2 °F 27.0 °F 53% 30.33 in 10.0 mi West 8.1 mph - N/A   Clear
10:53 PM 43.0 °F 39.5 °F 27.0 °F 53% 30.35 in 10.0 mi West 5.8 mph - N/A   Clear
11:53 PM 43.0 °F 41.3 °F 27.0 °F 53% 30.36 in 10.0 mi SSW 3.5 mph - N/A   Clear